Location: Newark
(12.4436°N, 0.6167°W)
Time: 17:22:05
(UTC+00:00)

deb Explorer IX - Pass Details

Date: 08 December 2019
Orbit: 548 x 1101 km, 38.8° (Epoch: 19 January)

Event Time Altitude Azimuth Distance (km) Brightness Sun altitude
Rises 16:58:51 0° 287° (WNW) 3,307 ? 7.6°
Reaches altitude 10° 17:03:07 10° 318° (NW) 2,523 ? 6.7°
Maximum altitude 17:05:19 12° 339° (NNW) 2,454 ? 6.2°
Drops below altitude 10° 17:07:37 10° 1° (N) 2,665 ? 5.7°
Sets 17:12:30 0° 30° (NNE) 3,743 ? 4.6°
